COSMOS 2251 DEB, 40794

Orbit data source: Space-Track

COSMOS 2251 DEB, 40794 is space debris in LEO originally from a launch on Wed, 16 Jun 1993 UTC launched from the Plesetsk Missile And Space Complex (PKMTR). The debris from Iridium 33, an American commercial communications satellite, has been tracked extensively since its accidental collision with the defunct Russian satellite Cosmos 2251 in 2009. This event, occurring at high speed in low Earth orbit (LEO), generated thousands of pieces of space debris, significantly increasing the risk of further collisions. The Iridium 33 debris cloud has impacted space traffic management and orbital debris mitigation strategies, making it a subject of ongoing study in space situational awareness.

Loading next visibility...
Identifier
40794, 1993-036BVX
Orbit
LEO
Country
Flag of CISCIS
Related business
Manufacturer
Unknown
Mission
Spacecraft
Bus & Motor
Unknown
Mass
Unknown
Launch date (UTC)
1993-06-16 (32 years ago)
Launch vehicle
Unknown
Launch site
Plesetsk Missile And Space Complex (PKMTR)
Object type
Payload
Rocket body
Debris
Shape & HBR
Unknown
Radar Cross Section
Small (<0.1 m²)

Expand to show TLE details & history
Last TLE update: 22 hours ago

TLE from 22 hours ago
0 COSMOS 2251 DEB
1 40794U 93036BVX 25260.45007238  .00017670  00000-0  20515-2 0  9995
2 40794  73.9856 297.2311 0014402  50.4976  14.7283 14.85295275606400
Epoch: 2025-09-17T10:48Z
TLE epoch observation values (Epoch: 2025-09-17T10:48:06.253Z)
Latitude
60.9193°
Longitude
169.46121°
Altitude
612.968 km
Speed
7.564 km/s
True Right ascension
21h 52m 27s
True Declination
60° 46' 12"
Sunlit
Object was in partial shadow at epoch
Visualization orbit readout
Latitude
Unknown
Longitude
Unknown
Altitude
Unknown
Speed
Unknown
Apparent Right ascension
Unknown
Apparent Declination
Unknown
Sunlit
N/A
Visualization observer readout
Local Sidereal Time
01:32:13
Azimuth
Unknown
Elevation
Unknown
Doppler factor
Unknown
Orbital elements
Apogee altitude
620.298 km
Perigee altitude
600.169 km
Semi-major axis
6,988.37 km
Eccentricity
0.00144
Inclination
73.9856°
RAAN
297.2311°
Arg. of periapsis
50.4976°
True anomaly
14.77033°
Mean anomaly
14.7283°
Eccentric anomaly
14.74931°
Mean motion
3.71518 °/min
Orbital period
96.9 mins
BSTAR
0.0020515
Loading maneuver chart data...
Computing Atmospheric mass density...

Documentation

Showing up to 5 results
|